GAVJT EGHJ-EGKA

Flight info

Callsign GAVJT
Flight time 0h 16m
Altitude 1500
Route SELSEY/ LITTLEHAMPTON/ WORTHING PIER
Aircraft BE36/L-G/L

Departure

Time 2026-04-30 10:09
Airport Bembridge Airport (EGHJ)

Arrival

Time 2026-04-30 10:25
Airport Brighton City Airport (EGKA)
Time Latitude Longitude Altitude Speed Heading
2026-04-30 10:06 50.67816 -1.10428 16 ft 0 kts 94°
2026-04-30 10:06 50.67799 -1.10425 17 ft 8 kts 240°
2026-04-30 10:07 50.67811 -1.10549 23 ft 17 kts 267°
2026-04-30 10:07 50.67805 -1.10769 30 ft 13 kts 263°
2026-04-30 10:07 50.67782 -1.10884 33 ft 14 kts 295°
2026-04-30 10:07 50.67849 -1.11062 35 ft 25 kts 298°
2026-04-30 10:08 50.67943 -1.11339 42 ft 22 kts 297°
2026-04-30 10:08 50.67938 -1.11363 42 ft 7 kts 73°
2026-04-30 10:08 50.67939 -1.11349 42 ft 0 kts 112°
2026-04-30 10:08 50.67847 -1.11064 35 ft 68 kts 118°
2026-04-30 10:09 50.67562 -1.10256 286 ft 90 kts 109°
2026-04-30 10:09 50.67310 -1.09323 716 ft 87 kts 94°
2026-04-30 10:09 50.67639 -1.08444 964 ft 110 kts 59°
2026-04-30 10:09 50.68172 -1.07493 1187 ft 120 kts 56°
2026-04-30 10:10 50.68553 -1.06317 1391 ft 122 kts 79°
2026-04-30 10:10 50.68804 -1.05035 1503 ft 127 kts 79°
2026-04-30 10:10 50.69050 -1.03667 1504 ft 131 kts 80°
2026-04-30 10:10 50.69294 -1.02277 1506 ft 132 kts 80°
2026-04-30 10:11 50.69535 -1.00883 1504 ft 132 kts 80°
2026-04-30 10:11 50.69774 -0.99478 1510 ft 133 kts 80°
2026-04-30 10:11 50.70016 -0.98071 1504 ft 133 kts 80°
2026-04-30 10:11 50.70257 -0.96664 1501 ft 133 kts 80°
2026-04-30 10:12 50.70497 -0.95258 1506 ft 132 kts 81°
2026-04-30 10:12 50.70737 -0.93861 1504 ft 132 kts 81°
2026-04-30 10:12 50.70975 -0.92466 1499 ft 131 kts 81°
2026-04-30 10:12 50.71210 -0.91084 1501 ft 130 kts 81°
2026-04-30 10:13 50.71445 -0.89706 1504 ft 130 kts 81°
2026-04-30 10:13 50.71682 -0.88316 1500 ft 131 kts 80°
2026-04-30 10:13 50.71911 -0.86969 1500 ft 131 kts 80°
2026-04-30 10:13 50.72145 -0.85591 1499 ft 132 kts 80°
2026-04-30 10:14 50.72385 -0.84177 1500 ft 133 kts 81°
2026-04-30 10:14 50.72622 -0.82777 1499 ft 131 kts 81°
2026-04-30 10:14 50.73092 -0.80009 1503 ft 130 kts 80°
2026-04-30 10:15 50.73368 -0.78611 1506 ft 138 kts 71°
2026-04-30 10:15 50.73828 -0.77260 1514 ft 141 kts 68°
2026-04-30 10:15 50.74286 -0.75886 1511 ft 140 kts 68°
2026-04-30 10:15 50.74733 -0.74538 1503 ft 136 kts 68°
2026-04-30 10:16 50.75166 -0.73226 1504 ft 134 kts 69°
2026-04-30 10:16 50.75596 -0.71921 1504 ft 133 kts 69°
2026-04-30 10:16 50.76025 -0.70622 1503 ft 133 kts 69°
2026-04-30 10:17 50.76875 -0.68042 1503 ft 132 kts 69°
2026-04-30 10:17 50.77715 -0.65489 1499 ft 129 kts 69°
2026-04-30 10:17 50.78127 -0.64240 1502 ft 128 kts 68°
2026-04-30 10:18 50.78539 -0.62986 1505 ft 129 kts 69°
2026-04-30 10:18 50.78956 -0.61714 1505 ft 131 kts 69°
2026-04-30 10:18 50.79379 -0.60411 1524 ft 136 kts 68°
2026-04-30 10:19 50.80272 -0.57712 1514 ft 138 kts 67°
2026-04-30 10:19 50.80711 -0.56370 1516 ft 138 kts 69°
2026-04-30 10:19 50.81146 -0.55022 1505 ft 136 kts 71°
2026-04-30 10:19 50.81256 -0.53595 1509 ft 131 kts 96°
2026-04-30 10:20 50.81221 -0.52160 1508 ft 130 kts 92°
2026-04-30 10:20 50.81170 -0.49331 1510 ft 127 kts 92°
2026-04-30 10:20 50.81142 -0.47933 1511 ft 127 kts 92°
2026-04-30 10:21 50.81110 -0.46539 1507 ft 127 kts 92°
2026-04-30 10:21 50.81082 -0.45142 1503 ft 128 kts 92°
2026-04-30 10:21 50.81050 -0.43729 1502 ft 129 kts 93°
2026-04-30 10:21 50.81024 -0.42338 1507 ft 128 kts 93°
2026-04-30 10:22 50.81003 -0.41385 1505 ft 129 kts 94°
2026-04-30 10:22 50.80992 -0.40803 1509 ft 129 kts 92°
2026-04-30 10:22 50.80999 -0.39392 1529 ft 128 kts 90°
2026-04-30 10:22 50.81091 -0.38042 1428 ft 117 kts 84°
2026-04-30 10:23 50.81231 -0.36877 1246 ft 93 kts 76°
2026-04-30 10:23 50.81411 -0.36048 1102 ft 81 kts 74°
2026-04-30 10:23 50.81636 -0.35223 939 ft 87 kts 70°
2026-04-30 10:23 50.81915 -0.34354 810 ft 90 kts 68°
2026-04-30 10:24 50.82203 -0.33487 695 ft 83 kts 69°
2026-04-30 10:24 50.82426 -0.32768 544 ft 69 kts 69°
2026-04-30 10:24 50.82631 -0.32077 395 ft 69 kts 67°
2026-04-30 10:24 50.82842 -0.31401 301 ft 71 kts 70°
2026-04-30 10:25 50.83069 -0.30696 166 ft 70 kts 71°
2026-04-30 10:25 50.83277 -0.30017 51 ft 69 kts 72°
2026-04-30 10:25 50.83470 -0.29385 11 ft 54 kts 63°
2026-04-30 10:25 50.83588 -0.29008 10 ft 21 kts 64°
2026-04-30 10:26 50.83617 -0.28846 9 ft 14 kts 138°
2026-04-30 10:26 50.83514 -0.28845 10 ft 19 kts 232°
2026-04-30 10:26 50.83453 -0.28991 10 ft 13 kts 250°
2026-04-30 10:26 50.83453 -0.29043 10 ft 0 kts 252°